This is the latest recevied weather packets stored in our database for station/object KI5MKI. If no packets are shown the sender has not sent any weather packets the latest 10 day(s).
| Time | Temp. | Humidity | Pressure | Rain* | Wind** | Luminosity | Snow |
|---|---|---|---|---|---|---|---|
| 1777484533 | 16.67° C | 91% | 1016.2 hPa | 0 mm | - | 99 W/m² | - |
| 1777484230 | 17.22° C | 92% | 1015.9 hPa | 0 mm | - | 194 W/m² | - |
| 1777483926 | 16.67° C | 93% | 1015.8 hPa | 0 mm | - | 538 W/m² | - |
| 1777483623 | 16.67° C | 92% | 1015.8 hPa | 0 mm | - | 322 W/m² | - |
| 1777483318 | 16.67° C | 93% | 1016 hPa | 0 mm | - | 272 W/m² | - |
| 1777483014 | 16.67° C | 94% | 1016.1 hPa | 0 mm | - | 421 W/m² | - |
| 1777482710 | 16.67° C | 94% | 1016 hPa | 0 mm | - | 406 W/m² | - |
| 1777482407 | 16.11° C | 93% | 1015.6 hPa | 0 mm | - | 379 W/m² | - |
| 1777482104 | 16.11° C | 93% | 1015.4 hPa | 0 mm | - | 468 W/m² | - |
| 1777481802 | 16.11° C | 94% | 1015.6 hPa | 0 mm | - | 467 W/m² | - |
| 1777481499 | 15.56° C | 94% | 1015.7 hPa | 0 mm | - | 459 W/m² | - |
| 1777481195 | 15° C | 94% | 1016 hPa | 6.6 mm | - | 269 W/m² | - |
| 1777480892 | 14.44° C | 93% | 1015.5 hPa | 37.34 mm | - | 197 W/m² | - |
| 1777480589 | 14.44° C | 93% | 1015 hPa | 54.61 mm | - | 117 W/m² | - |
| 1777480286 | 14.44° C | 92% | 1017.8 hPa | 56.39 mm | - | 30 W/m² | - |
| 1777479982 | 15° C | 91% | 1017.1 hPa | 54.1 mm | - | 18 W/m² | - |
| 1777479679 | 15° C | 90% | 1017.2 hPa | 17.53 mm | - | 11 W/m² | - |
| 1777479377 | 15.56° C | 88% | 1016.9 hPa | 1.27 mm | - | 10 W/m² | - |
| 1777479073 | 15.56° C | 87% | 1014.9 hPa | 0 mm | - | 37 W/m² | - |
| 1777478770 | 15.56° C | 86% | 1015.6 hPa | 0 mm | - | 18 W/m² | - |
| 1777478466 | 16.11° C | 86% | 1015.7 hPa | 0 mm | - | 28 W/m² | - |
| 1777478163 | 16.11° C | 86% | 1015.9 hPa | 0 mm | - | 50 W/m² | - |
| 1777477859 | 15.56° C | 86% | 1015.8 hPa | 0 mm | - | 105 W/m² | - |
| 1777477554 | 15.56° C | 87% | 1015.4 hPa | 0 mm | - | 75 W/m² | - |
| 1777477251 | 15.56° C | 87% | 1015.8 hPa | 0 mm | - | 64 W/m² | - |
* Rain latest hour (hover to see other rain measurements)
** Current wind speed in m/s (hover to see current wind gust speed)